Home > Weather > Mason > Past weeks

Flag for U.S.A. Weather for the Past 2 Weeks in Mason, Ohio, U.S.A.

Now
22 °F

Passing clouds.


Feels Like: 10 °F
Forecast: 8 / 18 °F
Wind: 12 mph from Northwest

Location: Butler County Regional Airport

Current Time: Feb 12, 2016 at 10:33:23 PM

Latest Report: Feb 12, 2016 at 8:53 PM


Visibility: 10 mi

Pressure: 30.27 "Hg

Humidity: 62%

Dew point: 11 °F

Location of MasonLocation

Historic Weather in Mason — Graph

°F

Mason Temperature Yesterday

Maximum temperature yesterday: 24 °F (at 2:53 PM)
Minimum temperature yesterday: 6 °F (at 7:53 AM)
Average temperature yesterday: 17 °F

High & Low Weather Summary for the Past Weeks

 TemperatureHumidityPressure
High65 °F (Jan 30, 2:53 PM)97% (Feb 3, 1:03 AM)30.47 "Hg (Feb 3, 1:03 AM)
Low6 °F (Feb 11, 7:53 AM)27% (Feb 7, 2:53 PM)29.57 "Hg (Feb 3, 2:53 AM)
Average35 °F69%30.02 "Hg
* Reported Jan 28 8:53 PM — Feb 12 8:53 PM, Mason, Weather by CustomWeather, © 2016

Note: Actual official high and low records may vary slightly from our data, if they occured in-between our weather recording intervals... More about our weather records

Advertising

Mason Weather History for the Previous 24 Hours

 ConditionsComfort  
Time TempWeatherWind HumidityBarometerVisibility
8:53 PM
Fri, Feb 12
22 °FPassing clouds.12 mph62%30.27 "Hg10 mi
7:53 PM23 °FPassing clouds.18 mph68%30.24 "Hg10 mi
6:53 PM26 °FLight snow. Mostly cloudy.14 mph77%30.19 "Hg4 mi
6:02 PM26 °FLight snow. Overcast.12 mph77%30.14 "Hg2 mi
5:53 PM27 °FOvercast.13 mph69%30.16 "Hg10 mi
3:53 PM29 °FMore clouds than sun.16 mph56%30.13 "Hg10 mi
2:53 PM29 °FMore clouds than sun.10 mph56%30.12 "Hg10 mi
1:53 PM29 °FOvercast.10 mph56%30.13 "Hg10 mi
12:53 PM28 °FMostly cloudy.8 mph64%30.16 "Hg10 mi
11:53 AM26 °FOvercast.9 mph69%30.19 "Hg10 mi
10:53 AM25 °FMostly cloudy.6 mph66%30.20 "Hg10 mi
9:53 AM22 °FMostly cloudy.No wind72%30.21 "Hg9 mi
8:53 AM20 °FOvercast.No wind71%30.23 "Hg10 mi
7:53 AM18 °FOvercast.No wind74%30.23 "Hg10 mi
6:53 AM17 °FMostly cloudy.No wind80%30.24 "Hg10 mi
5:53 AM14 °FOvercast.No wind87%30.25 "Hg10 mi
4:53 AM12 °FPassing clouds.No wind92%30.26 "Hg10 mi
3:53 AM12 °FClear.No wind88%30.27 "Hg10 mi
2:53 AM12 °FClear.No wind88%30.28 "Hg10 mi
1:53 AM14 °FClear.No wind84%30.30 "Hg10 mi
12:53 AM15 °FClear.No wind87%30.32 "Hg10 mi
11:53 PM
Thu, Feb 11
15 °FClear.3 mph83%30.33 "Hg10 mi
10:53 PM17 °FClear.No wind76%30.34 "Hg10 mi
Weather by CustomWeather, © 2016

See weather overviewHow to use our weather pages